Altus, OK

1:03 PM CDT on March 29, 2017 (GMT -0500)
Altus Municipal

Weather History for KAXS - May, 2013

Change the Weather History Date:

Wednesday, May 1, 2013

  Actual Average (KLTS) Record (KLTS)
Temperature  
Mean Temperature 66 °F -  
Max Temperature 86 °F 77 °F 98 °F (2002)
Min Temperature 45 °F 53 °F 41 °F (2011)
Growing Degree Days 16 (Base 50)    
Moisture  
Dew Point 54 °F    
Average Humidity 62    
Maximum Humidity 86    
Minimum Humidity 37    
Precipitation  
Precipitation 0.00 in - - ()
Sea Level Pressure  
Sea Level Pressure 29.89 in    
Wind  
Wind Speed 20 mph (East)    
Max Wind Speed 34 mph    
Max Gust Speed 45 mph    
Visibility 10 miles    
Events Thunderstorm    
Averages and records for this station are not official NWS values.
T = Trace of Precipitation, MM = Missing Value Source: NWS Daily Summary

Daily Weather History Graph

Daily Weather History Graph

Search for Another Location

Airport or City:

Trip Planner

Search our weather history database for the weather conditions in past years. The results will help you decide how hot, cold, wet, or windy it might be!

Date:

Astronomy

May. 01, 2013 Rise Set
Actual Time 6:46 AM CDT 8:22 PM CDT
Civil Twilight 6:19 AM CDT 8:49 PM CDT
Nautical Twilight 5:47 AM CDT 9:22 PM CDT
Astronomical Twilight 5:13 AM CDT 9:56 PM CDT
Moon 1:32 AM CDT (5/1) 12:26 PM CDT (5/1)
Length of Visible Light 14h 29m
Length of Day
13h 35m
Waning Gibbous, 59% of the Moon is Illuminated
May 1
Waning Gibbous
May 2
Last Quarter
May 9
New
May 17
First Quarter
May 24
Full

Hourly Weather History & Observations

Time (CDT) Temp. Windchill Dew Point Humidity Pressure Visibility Wind Dir Wind Speed Gust Speed Precip Events Conditions
12:15 AM 72.3 °F - 57.7 °F 60% 29.75 in 10.0 mi SE 24.2 mph 29.9 mph N/A   Clear
12:35 AM 72.0 °F - 57.7 °F 61% 29.75 in 10.0 mi SE 25.3 mph 31.1 mph N/A   Clear
12:55 AM 71.4 °F - 57.7 °F 62% 29.75 in 10.0 mi SE 20.7 mph 29.9 mph N/A   Clear
1:35 AM 69.6 °F - 58.1 °F 67% 29.74 in 10.0 mi SE 23.0 mph 28.8 mph N/A   Clear
1:55 AM 69.8 °F - 58.1 °F 66% 29.73 in 10.0 mi SE 23.0 mph 29.9 mph N/A   Clear
2:15 AM 69.8 °F - 58.1 °F 66% 29.72 in 10.0 mi SE 25.3 mph 29.9 mph N/A   Clear
2:35 AM 69.8 °F - 58.1 °F 66% 29.73 in 10.0 mi SE 21.9 mph 27.6 mph N/A   Clear
2:55 AM 69.4 °F - 58.1 °F 67% 29.73 in 10.0 mi SE 23.0 mph 28.8 mph N/A   Clear
3:15 AM 69.1 °F - 58.1 °F 68% 29.72 in 10.0 mi SE 19.6 mph 25.3 mph N/A   Clear
3:35 AM 68.4 °F - 58.6 °F 71% 29.72 in 10.0 mi SE 20.7 mph 25.3 mph N/A   Clear
3:55 AM 68.0 °F - 59.0 °F 73% 29.72 in 10.0 mi SE 18.4 mph - N/A   Clear
4:15 AM 67.3 °F - 59.0 °F 75% 29.72 in 10.0 mi SE 18.4 mph - N/A   Clear
4:35 AM 66.7 °F - 59.2 °F 77% 29.73 in 10.0 mi SE 12.7 mph - N/A   Clear
4:55 AM 66.4 °F - 59.2 °F 78% 29.74 in 10.0 mi SE 13.8 mph - N/A   Clear
5:15 AM 65.8 °F - 59.2 °F 79% 29.74 in 10.0 mi SE 13.8 mph - N/A   Clear
5:35 AM 65.3 °F - 59.2 °F 81% 29.75 in 10.0 mi SE 11.5 mph - N/A   Clear
5:55 AM 64.8 °F - 59.2 °F 82% 29.77 in 10.0 mi SSE 10.4 mph - N/A   Clear
6:15 AM 64.4 °F - 59.2 °F 83% 29.76 in 10.0 mi SE 11.5 mph - N/A   Clear
6:35 AM 64.4 °F - 59.4 °F 84% 29.77 in 10.0 mi SE 11.5 mph - N/A   Clear
6:55 AM 64.4 °F - 59.4 °F 84% 29.78 in 10.0 mi SE 11.5 mph - N/A   Clear
7:15 AM 63.9 °F - 59.5 °F 86% 29.78 in 10.0 mi SE 10.4 mph - N/A   Clear
7:35 AM 64.6 °F - 59.9 °F 85% 29.79 in 10.0 mi SE 12.7 mph - N/A   Clear
7:55 AM 65.8 °F - 60.1 °F 82% 29.79 in 10.0 mi SE 13.8 mph - N/A   Clear
8:15 AM 68.0 °F - 60.6 °F 77% 29.80 in 10.0 mi SE 16.1 mph 20.7 mph N/A   Clear
8:35 AM 69.3 °F - 60.8 °F 74% 29.82 in 10.0 mi SSE 13.8 mph - N/A   Clear
8:55 AM 70.5 °F - 60.8 °F 71% 29.83 in 10.0 mi South 16.1 mph - N/A   Clear
9:15 AM 72.0 °F - 61.0 °F 68% 29.83 in 10.0 mi SSE 19.6 mph 24.2 mph N/A   Clear
9:35 AM 74.1 °F - 61.7 °F 65% 29.83 in 10.0 mi SSE 17.3 mph 23.0 mph N/A   Clear
9:55 AM 74.7 °F - 61.7 °F 64% 29.82 in 10.0 mi SSE 18.4 mph - N/A   Clear
10:15 AM 76.3 °F - 61.7 °F 60% 29.82 in 10.0 mi SSE 17.3 mph 24.2 mph N/A   Clear
10:35 AM 78.8 °F - 61.9 °F 56% 29.83 in 10.0 mi South 18.4 mph 21.9 mph N/A   Clear
10:55 AM 80.1 °F - 61.7 °F 53% 29.84 in 10.0 mi South 15.0 mph 21.9 mph N/A   Clear
11:15 AM 81.7 °F - 61.2 °F 50% 29.85 in 10.0 mi South 11.5 mph 16.1 mph N/A   Clear
11:35 AM 82.6 °F - 60.8 °F 48% 29.85 in 10.0 mi South 11.5 mph - N/A   Scattered Clouds
11:55 AM 82.9 °F - 60.1 °F 46% 29.85 in 10.0 mi SSE 10.4 mph 19.6 mph N/A   Scattered Clouds
12:15 PM 84.7 °F - 58.5 °F 41% 29.85 in 10.0 mi WSW 8.1 mph 16.1 mph N/A   Clear
12:35 PM 84.6 °F - 57.9 °F 40% 29.86 in 10.0 mi SSE 3.5 mph - N/A   Scattered Clouds
12:55 PM 83.5 °F - 57.7 °F 41% 29.86 in 10.0 mi WNW 9.2 mph - N/A   Scattered Clouds
1:15 PM 82.6 °F - 57.7 °F 43% 29.86 in 10.0 mi NNW 10.4 mph - N/A   Scattered Clouds
1:35 PM 83.7 °F - 57.9 °F 41% 29.87 in 10.0 mi NNW 6.9 mph - N/A   Clear
1:55 PM 82.8 °F - 57.7 °F 42% 29.87 in 10.0 mi WNW 10.4 mph - N/A   Clear
2:15 PM 84.7 °F - 57.7 °F 40% 29.87 in 10.0 mi Calm Calm - N/A   Clear
2:35 PM 84.0 °F - 57.4 °F 40% 29.88 in 10.0 mi NW 3.5 mph - N/A   Clear
2:55 PM 83.8 °F - 57.6 °F 41% 29.88 in 10.0 mi NNW 4.6 mph - N/A   Clear
3:15 PM 85.1 °F - 57.4 °F 39% 29.88 in 10.0 mi NNW 5.8 mph - N/A   Clear
3:35 PM 86.2 °F - 57.9 °F 38% 29.87 in 10.0 mi North 9.2 mph - N/A Thunderstorm Clear
3:55 PM 81.0 °F - 52.7 °F 37% 29.90 in 10.0 mi NNW 27.6 mph 34.5 mph N/A Thunderstorm Scattered Clouds
4:15 PM 79.7 °F - 52.2 °F 38% 29.91 in 7.0 mi North 26.5 mph 33.4 mph N/A Thunderstorm Scattered Clouds
4:35 PM 75.6 °F - 51.6 °F 43% 29.93 in 10.0 mi North 25.3 mph 31.1 mph N/A   Clear
4:55 PM 73.6 °F - 51.3 °F 45% 29.93 in 10.0 mi North 27.6 mph 35.7 mph N/A   Scattered Clouds
5:15 PM 68.9 °F - 50.2 °F 51% 29.94 in 10.0 mi North 27.6 mph 39.1 mph N/A   Scattered Clouds
5:35 PM 64.6 °F - 49.3 °F 58% 29.95 in 10.0 mi North 31.1 mph 36.8 mph N/A   Clear
5:55 PM 63.3 °F - 47.5 °F 56% 29.98 in 10.0 mi North 31.1 mph 40.3 mph N/A Thunderstorm Scattered Clouds
6:15 PM 60.1 °F - 46.4 °F 61% 30.00 in 10.0 mi North 29.9 mph 36.8 mph N/A   Scattered Clouds
6:35 PM 57.6 °F - 45.3 °F 64% 30.01 in 10.0 mi North 28.8 mph 38.0 mph N/A   Scattered Clouds
6:55 PM 57.2 °F - 44.6 °F 63% 30.02 in 10.0 mi North 28.8 mph 39.1 mph N/A   Scattered Clouds
7:15 PM 55.0 °F - 43.5 °F 65% 30.04 in 10.0 mi North 25.3 mph 36.8 mph N/A   Scattered Clouds
7:35 PM 54.5 °F - 43.2 °F 66% 30.06 in 10.0 mi North 31.1 mph 39.1 mph N/A   Scattered Clouds
7:55 PM 52.3 °F - 42.1 °F 68% 30.07 in 10.0 mi North 27.6 mph 36.8 mph N/A   Scattered Clouds
8:15 PM 51.1 °F - 41.2 °F 69% 30.07 in 10.0 mi North 28.8 mph 38.0 mph N/A   Mostly Cloudy
8:35 PM 50.7 °F - 40.8 °F 69% 30.09 in 10.0 mi North 31.1 mph 36.8 mph N/A   Overcast
8:55 PM 50.0 °F - 40.3 °F 69% 30.11 in 10.0 mi North 21.9 mph 39.1 mph N/A   Overcast
9:15 PM 49.1 °F - 39.6 °F 70% 30.11 in 10.0 mi North 28.8 mph 41.4 mph N/A   Overcast
9:35 PM 48.7 °F - 39.6 °F 71% 30.13 in 10.0 mi North 28.8 mph 39.1 mph N/A   Overcast
9:55 PM 48.2 °F - 38.7 °F 70% 30.14 in 10.0 mi North 27.6 mph 40.3 mph N/A   Overcast
10:15 PM 47.5 °F - 38.3 °F 70% 30.15 in 10.0 mi North 27.6 mph 36.8 mph N/A   Overcast
10:35 PM 46.9 °F - 37.8 °F 70% 30.17 in 10.0 mi North 33.4 mph 41.4 mph N/A   Overcast
10:55 PM 46.6 °F - 37.4 °F 70% 30.18 in 10.0 mi North 29.9 mph 40.3 mph N/A   Overcast
11:15 PM 45.9 °F 36.0 °F 36.7 °F 70% 30.19 in 10.0 mi North 33.4 mph 44.9 mph N/A   Overcast
11:35 PM 45.5 °F 35.6 °F 36.3 °F 70% 30.19 in 10.0 mi North 32.2 mph 43.7 mph N/A   Overcast
11:55 PM 45.0 °F 34.6 °F 35.8 °F 70% 30.20 in 10.0 mi North 34.5 mph 39.1 mph N/A   Overcast